Estación Meteorológica de la Universidad de Murcia
Estación Meteorológica de la Universidad de Murcia
Universidad de Murcia
 

Velocidad y dirección del vientoVelocidad y dirección del viento

 

Velocidad: 34,92 km/h a las 15:57:00 del día 24/06/2017
Dirección del viento: 133,3 º SE Rosa de los vientos a las 15:57:00 del día 24/06/2017

Nota:
N (entre 337,6º y 22,5º), NE (entre 22,6º y 67,5º), E (entre 67,6º y 112,5º), SE (entre 112,6º y 157,5º), S (entre 157,6º y 202,5º), SW (entre 202,6º y 247,5º), W (entre 247,5º y 292,5º) y NW (entre 292,6º y 337,5º)

||Velocidad últimos meses|| ----||Dirección del viento||


Velocidad

  • 1 - 34,92 km/h del día 24/06/2017
  • 2 - 29,52 km/h del día 23/06/2017
  • 3 - 30,96 km/h del día 22/06/2017
  • 4 - 33,12 km/h del día 21/06/2017
  • 5 - 31,68 km/h del día 20/06/2017
  • 6 - 36,72 km/h del día 19/06/2017
  • 7 - 31,32 km/h del día 18/06/2017
  • 8 - 33,48 km/h del día 17/06/2017
  • 9 - 32,04 km/h del día 16/06/2017
  • 10 - 32,76 km/h del día 15/06/2017
  • 11 - 29,52 km/h del día 14/06/2017
  • 12 - 36,72 km/h del día 13/06/2017
  • 13 - 33,84 km/h del día 12/06/2017
  • 14 - 30,96 km/h del día 11/06/2017
  • 15 - 27,72 km/h del día 10/06/2017
  • 16 - 29,88 km/h del día 09/06/2017
  • 17 - 38,16 km/h del día 08/06/2017
  • 18 - 39,24 km/h del día 07/06/2017
  • 19 - 32,04 km/h del día 06/06/2017
  • 20 - 39,6 km/h del día 05/06/2017
  • 21 - 34,2 km/h del día 04/06/2017
  • 22 - 32,04 km/h del día 03/06/2017
  • 23 - 33,84 km/h del día 02/06/2017
  • 24 - 32,4 km/h del día 01/06/2017
  • 25 - 36 km/h del día 31/05/2017
  • 26 - 33,48 km/h del día 30/05/2017
  • 27 - 32,76 km/h del día 29/05/2017
  • 28 - 42,48 km/h del día 28/05/2017
  • 29 - 36 km/h del día 27/05/2017
  • 30 - 31,32 km/h del día 26/05/2017
  • 31 - 29,52 km/h del día 25/05/2017
  • 32 - 34,92 km/h del día 24/05/2017
  • 33 - 35,64 km/h del día 23/05/2017
  • 34 - 38,88 km/h del día 22/05/2017
  • 35 - 30,6 km/h del día 21/05/2017
  • 36 - 37,08 km/h del día 20/05/2017
  • 37 - 30,96 km/h del día 19/05/2017
  • 38 - 28,8 km/h del día 18/05/2017
  • 39 - 32,4 km/h del día 17/05/2017
  • 40 - 33,12 km/h del día 16/05/2017
  • 41 - 33,12 km/h del día 15/05/2017
  • 42 - 33,12 km/h del día 14/05/2017
  • 43 - 29,52 km/h del día 13/05/2017
  • 44 - 26,64 km/h del día 12/05/2017
  • 45 - 41,04 km/h del día 11/05/2017
  • 46 - 33,84 km/h del día 10/05/2017
  • 47 - 30,96 km/h del día 09/05/2017
  • 48 - 27 km/h del día 08/05/2017
  • 49 - 28,44 km/h del día 07/05/2017
  • 50 - 34,2 km/h del día 06/05/2017
  • 51 - 24,48 km/h del día 05/05/2017
  • 52 - 27,72 km/h del día 04/05/2017
  • 53 - 31,32 km/h del día 03/05/2017
  • 54 - 28,08 km/h del día 02/05/2017
  • 55 - 27 km/h del día 01/05/2017
  • 56 - 27 km/h del día 30/04/2017
  • 57 - 27 km/h del día 29/04/2017
  • 58 - 27 km/h del día 28/04/2017
  • 59 - 27 km/h del día 27/04/2017
  • 60 - 28,44 km/h del día 26/04/2017

||Volver al inicio de la página||


Dirección del viento

  • 1 - 1443.11 º 1443,11 del día 31/05/2017
  • 2 - 1026.09 º 1026,09 del día 30/05/2017
  • 3 - 255 º W del día 30/04/2017
  • 4 - 1556.32 º 1556,32 del día 29/05/2017
  • 5 - 255 º W del día 29/04/2017
  • 6 - 1431.65 º 1431,65 del día 28/05/2017
  • 7 - 315.66 º NW del día 28/04/2017
  • 8 - 1655.12 º 1655,12 del día 27/05/2017
  • 9 - 984.23 º N del día 27/04/2017
  • 10 - 1454.62 º 1454,62 del día 26/05/2017
  • 11 - 1682.71 º 1682,71 del día 26/04/2017
  • 12 - 968.26 º N del día 25/06/2017
  • 13 - 1596.01 º 1596,01 del día 25/05/2017
  • 14 - 1424.22 º 1424,22 del día 25/04/2017
  • 15 - 1426.24 º 1426,24 del día 24/06/2017
  • 16 - 1610.15 º 1610,15 del día 24/05/2017
  • 17 - 1327.61 º 1327,61 del día 23/06/2017
  • 18 - 1434.86 º 1434,86 del día 23/05/2017
  • 19 - 1596.63 º 1596,63 del día 22/06/2017
  • 20 - 1589.49 º 1589,49 del día 22/05/2017
  • 21 - 1463.79 º 1463,79 del día 21/06/2017
  • 22 - 1437.59 º 1437,59 del día 21/05/2017
  • 23 - 1381.49 º 1381,49 del día 20/06/2017
  • 24 - 1318.58 º 1318,58 del día 20/05/2017
  • 25 - 1274.93 º 1274,93 del día 19/06/2017
  • 26 - 1138.5 º 1138,5 del día 19/05/2017
  • 27 - 1077.96 º 1077,96 del día 18/06/2017
  • 28 - 1619.24 º 1619,24 del día 18/05/2017
  • 29 - 1613.12 º 1613,12 del día 17/06/2017
  • 30 - 875.93 º N del día 17/05/2017
  • 31 - 1240.21 º 1240,21 del día 16/06/2017
  • 32 - 825 º N del día 16/05/2017
  • 33 - 1347.6 º 1347,6 del día 15/06/2017
  • 34 - 1558.9 º 1558,9 del día 15/05/2017
  • 35 - 1547.66 º 1547,66 del día 14/06/2017
  • 36 - 1866.6 º 1866,6 del día 14/05/2017
  • 37 - 1523.65 º 1523,65 del día 13/06/2017
  • 38 - 2031.05 º 2031,05 del día 13/05/2017
  • 39 - 1581.25 º 1581,25 del día 12/06/2017
  • 40 - 2208.84 º 2208,84 del día 12/05/2017
  • 41 - 1470.94 º 1470,94 del día 11/06/2017
  • 42 - 2168.32 º 2168,32 del día 11/05/2017
  • 43 - 1208.3 º 1208,3 del día 10/06/2017
  • 44 - 1624.4 º 1624,4 del día 10/05/2017
  • 45 - 1354.84 º 1354,84 del día 09/06/2017
  • 46 - 1004.75 º 1004,75 del día 09/05/2017
  • 47 - 1338.06 º 1338,06 del día 08/06/2017
  • 48 - 1636.71 º 1636,71 del día 08/05/2017
  • 49 - 849.18 º N del día 07/06/2017
  • 50 - 1515.39 º 1515,39 del día 07/05/2017
  • 51 - 1745.19 º 1745,19 del día 06/06/2017
  • 52 - 2074.2 º 2074,2 del día 06/05/2017
  • 53 - 1610.21 º 1610,21 del día 05/06/2017
  • 54 - 1463.08 º 1463,08 del día 05/05/2017
  • 55 - 1241.86 º 1241,86 del día 04/06/2017
  • 56 - 1460.05 º 1460,05 del día 04/05/2017
  • 57 - 1327.4 º 1327,4 del día 03/06/2017
  • 58 - 1283.23 º 1283,23 del día 03/05/2017
  • 59 - 1437.48 º 1437,48 del día 02/06/2017
  • 60 - 795.27 º N del día 02/05/2017
  • 61 - 1248.93 º 1248,93 del día 01/06/2017
  • 62 - 255 º W del día 01/05/2017

|| Temperatura Ambiente|| Humedad relativa|| Precipitación|| Radiación Solar Global y PAR|| Temperatura y humedad del suelo|| Presión atmosférica|| Más información|| Volver a la página principal|| Volver al inicio de la página||


Estación Meteorológica de la Universidad de Murcia
http://estacion.um.es/
Informacion actualizada a: 25/06/2017 a las 20:48:00